Location: Conflandey
(47.7287°N, 6.0456°E)
Time: 20:07:05
(UTC+00:00)

SKYMED 2 - Pass Details

Date: 24 October 2021
Orbit: 621 x 623 km, 97.9° (Epoch: 05 December)

Event Time Altitude Azimuth Distance (km) Brightness Sun altitude
Rises 17:01:05 0° 22° (NNE) 2,917 6.7 -5.7°
Reaches altitude 10° 17:03:32 10° 34° (NE) 2,004 5.8 -6.1°
Maximum altitude 17:07:21 29° 95° (E) 1,150 4.4 -6.8°
Drops below altitude 10° 17:11:07 10° 156° (SSE) 1,989 6.0 -7.4°
Sets 17:13:32 0° 168° (SSE) 2,889 7.0 -7.8°
